Tracking 30995 objects as of 6-Jul-2025
HD Live streaming from Space Station
objects crossing your sky now

NOAA 16 DEB

Track NOAA 16 DEB now!
10-day predictions


NORAD ID: 41250
Int'l Code: 2000-055FA
Perigee: 640.6 km
Apogee: 671.0 km
Inclination: 99.0 °
Period: 97.7 minutes
Semi major axis: 7026 km
RCS: Unknown
Launch date: September 21, 2000
Source: United States (US)
Launch site: AIR FORCE WESTERN TEST RANGE (AFWTR)

Note: This is SATELLITE DEBRIS
Your satellite tracking list
STARLINK-5810
Track 1 satellite(s)




NASA's NSSDC Master Catalog

Two Line Element Set (TLE):
1 41250U 00055FA  25186.45585183  .00038059  00000-0  57624-2 0  9994
2 41250  99.0024   5.7185 0021618 107.4591 252.8980 14.73884608494290
Source of the keplerian elements: AFSPC